Home > Weather > Khartoum > Past weeks

Flag for Sudan Weather for the Past 2 Weeks in Khartoum, Sudan

Now
70 °F

Clear.


Feels Like: 70 °F
Forecast: 53 / 83 °F
Wind: 16 mph from North

Location: Khartoum Airport

Current Time: Feb 8, 2016 at 1:21:53 AM

Latest Report: Feb 8, 2016 at 12:00 AM


Visibility: 10 mi

Pressure: 30.07 "Hg

Humidity: 16%

Dew point: 21 °F

Location of KhartoumLocation

Historic Weather in Khartoum — Graph

°F

Khartoum Temperature Yesterday

Maximum temperature yesterday: 82 °F (at 4:00 PM)
Minimum temperature yesterday: 61 °F (at 8:00 AM)
Average temperature yesterday: 73 °F

High & Low Weather Summary for the Past Weeks

 TemperatureHumidityPressure
High90 °F (Feb 4, 4:00 PM)44% (Jan 27, 7:00 AM)30.27 "Hg (Jan 27, 7:00 AM)
Low52 °F (Jan 27, 7:00 AM)8% (Feb 5, 4:00 PM)29.86 "Hg (Feb 4, 4:00 PM)
Average69 °F22%30.05 "Hg
* Reported Jan 23 11:00 PM — Feb 7 11:00 PM, Khartoum, Weather by CustomWeather, © 2016

Note: Actual official high and low records may vary slightly from our data, if they occured in-between our weather recording intervals... More about our weather records

Advertising

Khartoum Weather History for the Previous 24 Hours

 ConditionsComfort  
Time TempWeatherWind HumidityBarometerVisibility
11:00 PM
Sun, Feb 7
72 °FClear.14 mph17%30.07 "Hg10 mi
10:00 PM73 °FClear.15 mph14%30.04 "Hg10 mi
9:00 PM75 °FClear.13 mph16%30.04 "Hg10 mi
8:00 PM77 °FClear.14 mph13%30.04 "Hg10 mi
7:00 PM79 °FClear.16 mph15%30.01 "Hg10 mi
6:00 PM82 °FSunny.18 mph14%30.01 "Hg10 mi
5:00 PM82 °FSunny.12 mph14%30.01 "Hg10 mi
4:00 PM82 °FSunny.14 mph14%30.01 "Hg10 mi
3:00 PM81 °FSunny.18 mph17%30.01 "Hg10 mi
2:00 PM81 °FSunny.17 mph17%30.04 "Hg10 mi
1:00 PM77 °FSunny.13 mph21%30.04 "Hg10 mi
12:00 PM73 °FSunny.14 mph25%30.07 "Hg10 mi
11:00 AM70 °FSunny.20 mph29%30.09 "Hg10 mi
10:00 AM66 °FSunny.18 mph32%30.09 "Hg10 mi
9:00 AM61 °FSunny.12 mph34%30.07 "Hg10 mi
8:00 AM61 °FSunny.13 mph34%30.07 "Hg10 mi
5:00 AM63 °FClear.16 mph27%30.01 "Hg10 mi
4:00 AM66 °FClear.14 mph24%29.98 "Hg10 mi
3:00 AM66 °FClear.14 mph22%29.98 "Hg10 mi
2:00 AM68 °FClear.14 mph20%30.01 "Hg10 mi
1:00 AM72 °FClear.15 mph17%30.01 "Hg10 mi
Weather by CustomWeather, © 2016

See weather overviewHow to use our weather pages